Location: Buch
(50.1863°N, 11.0141°E)
Time: 17:50:37
(UTC+00:00)

Cosmos 1328 - Pass Details

Date: 18 January 2020
Orbit: 535 x 549 km, 82.5° (Epoch: 18 February)

Event Time Altitude Azimuth Distance (km) Brightness Sun altitude
Exits shadow 06:02:54 - 342° (NNW) 2,573 6.9 -10.1°
Reaches altitude 10° 06:04:47 10° 336° (NNW) 1,826 6.1 -9.8°
Maximum altitude 06:08:31 38° 268° (W) 841 4.3 -9.2°
Drops below altitude 10° 06:12:12 10° 199° (SSW) 1,803 6.5 -8.7°
Sets 06:14:26 0° 192° (SSW) 2,687 7.5 -8.4°
